Weather Service Report


180 
ASUS43 KBIS 281920
RWRND 

NORTH DAKOTA REGIONAL WEATHER ROUNDUP
NATIONAL WEATHER SERVICE BISMARCK ND
100 PM CST SAT FEB 28 2015

NOTE: "FAIR" INDICATES FEW OR NO CLOUDS BELOW 12,000 FEET WITH NO
SIGNIFICANT WEATHER AND/OR OBSTRUCTIONS TO VISIBILITY.


NDZ001>003-009>011-017-282000-
NORTHWEST NORTH DAKOTA
  
CITY           SKY/WX    TMP DP  RH WIND       PRES   REMARKS
WILLISTON      NOT AVBL                                               
MINOT AFB      MOSUNNY    7   0  73 NW21      30.12F WCI -13          
$$
 
NDZ018>021-031>035-040>046-282000-
SOUTHWEST NORTH DAKOTA
  
CITY           SKY/WX    TMP DP  RH WIND       PRES   REMARKS
BISMARCK       NOT AVBL                                               
GARRISON         N/A     10   2  69 NW18      30.13S WCI  -8          
$$
 
NDZ004>008-012>016-024-026-027-054-282000-
NORTHEAST NORTH DAKOTA
  
CITY           SKY/WX    TMP DP  RH WIND       PRES   REMARKS
DEVILS LAKE    PTSUNNY   18  10  73 W13       30.07F WCI   4          
$$
 
NDZ022-023-025-028>030-036>039-047>053-282000-
SOUTHEAST NORTH DAKOTA
  
CITY           SKY/WX    TMP DP  RH WIND       PRES   REMARKS
FARGO          NOT AVBL                                               
$$ 



181 
ASUS43 KBIS 281920
RWRBIS

NWR BROADCAST TEXT
NATIONAL WEATHER SERVICE BISMARCK ND
100 PM CST SAT FEB 28 2015

NOTE: "FAIR" INDICATES FEW OR NO CLOUDS BELOW 12,000 FEET WITH NO
SIGNIFICANT WEATHER AND/OR OBSTRUCTIONS TO VISIBILITY.

  
CITY           SKY/WX    TMP DP  RH WIND       PRES   REMARKS
WILLISTON      NOT AVBL                                               
MINOT          NOT AVBL                                               
MINOT AFB      MOSUNNY    7   0  73 NW21      30.12F WCI -13          
BISMARCK       NOT AVBL                                               
DICKINSON      NOT AVBL                                               
GARRISON         N/A     10   2  69 NW18      30.13S WCI  -8          
HETTINGER ARPT NOT AVBL                                               
JAMESTOWN      NOT AVBL                                               
BEACH          CLOUDY    14   5  67 W16G24    30.13F WCI  -2          
CARRINGTON     MOCLDY    18  14  86 MISG      30.08F                  
HARVEY         CLOUDY    10   5  79 NW18      30.10S WCI  -8          
LINTON         CLOUDY    23  14  68 NW14      30.10F WCI  11          
MANDAN         CLOUDY    19   7  58 NW14G21   30.12S WCI   6          
RUGBY          FAIR       9   3  78 NW17      30.09S WCI -10          
TIOGA          FLURRIES   9   5  85 NW20      30.15S WCI -11          
$$
  
CITY           SKY/WX    TMP DP  RH WIND       PRES   REMARKS
GRAND FORKS    NOT AVBL                                               
GRAND FORKS AF NOT AVBL                                               
DEVILS LAKE    PTSUNNY   18  10  73 W13       30.07F WCI   4          
FARGO          NOT AVBL                                               
CANDO          CLOUDY    16   7  67 NW10      30.07F WCI   3          
CAVALIER       FAIR      18  10  73 S10       30.11F WCI   6          
GWINNER        PTCLDY    27  14  59 SW24G32   30.16F WCI  12          
ROLLA          MOCLDY    12   7  79 N13       30.04F WCI  -3          
WALHALLA         N/A     19   7  58 SW8       30.10F WCI   9          
$$
  
CITY           SKY/WX    TMP DP  RH WIND       PRES   REMARKS
GLASGOW        MOSUNNY   18   3  52 W13       30.18F WCI   5          
SIDNEY         CLOUDY    16   1  53 W15       30.20F WCI   1          
GLENDIVE       CLOUDY    18   7  62 W15       30.16S WCI   3          
BAKER          FLURRIES  15   4  61 NW16G24   30.13F WCI  -1          
$$
  
CITY           SKY/WX    TMP DP  RH WIND       PRES   REMARKS
REGINA         MOSUNNY    7   3  85 W16       30.14F WCI -11          
ESTEVAN        FLURRIES   5   0  78 NW18      30.14S WCI -15          
$$


Return to Home page


Western Regional Climate Center, wrcc@dri.edu